Flag for USA

Past Weather in Fairfield Optimist Park, Ohio, USA — Yesterday and Last 2 Weeks

Now
37 °F

Overcast.


Feels Like: 37 °F
Forecast: 37 / 29 °F
Wind: No wind

Location: Cincinnati Municipal Airport Lunken Field

Current Time: Dec 15, 2019 at 3:57:58 pm

Latest Report: Dec 15, 2019 at 2:53 pm


Visibility: 10 mi

Pressure: 30.17 "Hg

Humidity: 57%

Dew Point: 23 °F

Location of Fairfield Optimist ParkLocation

Past Weather in Fairfield Optimist Park — Graph

°F

Fairfield Optimist Park Temperature Yesterday

Maximum temperature yesterday: 45 °F (at 1:53 pm)
Minimum temperature yesterday: 39 °F (at 6:53 pm)
Average temperature yesterday: 41 °F

High & Low Weather Summary for the Past Weeks

 TemperatureHumidityPressure
High59 °F (Dec 1, 3:53 am)100% (Dec 1, 1:53 am)30.61 "Hg (Dec 1, 1:53 am)
Low18 °F (Dec 11, 3:53 am)41% (Dec 4, 3:53 pm)29.39 "Hg (Dec 1, 3:53 am)
Average38 °F79%30.00 "Hg
* Reported Nov 30 1:53 pm — Dec 15 1:53 pm, Fairfield Optimist Park. Weather by CustomWeather, © 2019

Note: Actual official high and low records may vary slightly from our data, if they occured in-between our weather recording intervals... More about our weather records

Fairfield Optimist Park Weather History for the Previous 24 Hours

Scroll right to see more
 ConditionsComfort  
Time TempWeatherWind HumidityBarometerVisibility
1:53 pm
Sun, Dec 15
36 °FSunny.No wind59%30.15 "Hg10 mi
12:53 pm37 °FSunny.8 mph62%30.16 "Hg10 mi
11:53 am35 °FSunny.6 mph61%30.18 "Hg10 mi
10:53 am35 °FPassing clouds.6 mph59%30.17 "Hg10 mi
9:53 am34 °FOvercast.9 mph61%30.16 "Hg10 mi
8:53 am33 °FOvercast.5 mph70%30.13 "Hg9 mi
7:53 am33 °FOvercast.9 mph66%30.11 "Hg10 mi
6:53 am33 °FOvercast.10 mph70%30.09 "Hg10 mi
5:53 am33 °FOvercast.9 mph70%30.05 "Hg10 mi
4:53 am33 °FOvercast.10 mph72%30.02 "Hg10 mi
3:53 am33 °FOvercast.12 mph70%29.98 "Hg10 mi
2:53 am34 °FOvercast.9 mph79%29.96 "Hg10 mi
2:31 am34 °FOvercast.13 mph82%29.94 "Hg10 mi
1:53 am35 °FOvercast.13 mph85%29.92 "Hg10 mi
1:18 am36 °FOvercast.10 mph82%29.89 "Hg9 mi
12:53 am38 °FOvercast.7 mph79%29.89 "Hg6 mi
12:25 am38 °FOvercast.10 mph83%29.88 "Hg6 mi
12:08 am39 °FOvercast.13 mph79%29.87 "Hg6 mi
11:53 pm
Sat, Dec 14
39 °FOvercast.10 mph82%29.87 "Hg6 mi
10:53 pm41 °FOvercast.9 mph80%29.84 "Hg9 mi
10:08 pm41 °FMostly cloudy.9 mph82%29.82 "Hg9 mi
8:53 pm41 °FMostly cloudy.6 mph80%29.81 "Hg10 mi
7:53 pm40 °FPassing clouds.7 mph83%29.79 "Hg10 mi
6:53 pm39 °FClear.8 mph82%29.78 "Hg10 mi
5:53 pm41 °FPassing clouds.8 mph80%29.76 "Hg10 mi
4:53 pm43 °FOvercast.8 mph76%29.75 "Hg10 mi
3:53 pm44 °FMore clouds than sun.12 mph73%29.72 "Hg10 mi
3:09 pm45 °FCloudy.13 mph74%29.70 "Hg10 mi
Weather by CustomWeather, © 2019

See weather overview

Advertising